Rochester/St. Mary\'s Hospita, MN

3:45 PM CDT on June 19, 2018 (GMT -0500)
Rochester/St. Mary\'s Hospita

Weather History for K9MN - October, 2017

Change the Weather History Date:

Monday, October 23, 2017

  Actual Average (KRST) Record (KRST)
Temperature  
Mean Temperature 51 °F -  
Max Temperature 57 °F 56 °F 77 °F (1963)
Min Temperature 45 °F 38 °F 10 °F (1936)
Degree Days  
Heating Degree Days 14    
Growing Degree Days 1 (Base 50)    
Moisture  
Dew Point 37 °F    
Average Humidity 62    
Maximum Humidity 76    
Minimum Humidity 44    
Precipitation  
Precipitation 0.00 in - - ()
Sea Level Pressure  
Sea Level Pressure 29.81 in    
Wind  
Wind Speed 13 mph (WSW)    
Max Wind Speed 32 mph    
Max Gust Speed 40 mph    
Visibility 10 miles    
Events      
Averages and records for this station are not official NWS values.
T = Trace of Precipitation, MM = Missing Value Source: NWS Daily Summary

Daily Weather History Graph

Daily Weather History Graph

Search for Another Location

Airport or City:

Astronomy

Oct. 23, 2017 Rise Set
Actual Time 7:35 AM CDT 6:12 PM CDT
Civil Twilight 7:05 AM CDT 6:42 PM CDT
Nautical Twilight 6:31 AM CDT 7:15 PM CDT
Astronomical Twilight 5:58 AM CDT 7:49 PM CDT
Moon 11:07 AM CDT (10/23) 8:57 PM CDT (10/23)
Length of Visible Light 11h 36m
Length of Day
10h 37m
Waxing Crescent, 14% of the Moon is Illuminated
Oct 23
Waxing Crescent
Oct 27
First Quarter
Nov 4
Full
Nov 10
Last Quarter
Nov 18
New

Hourly Weather History & Observations

Time (CDT) Temp. Windchill Dew Point Humidity Pressure Visibility Wind Dir Wind Speed Gust Speed Precip Events Conditions
12:12 AM 49.3 °F - 39.4 °F 69% 29.94 in 10.0 mi SSE 11.5 mph 18.4 mph N/A   Clear
12:32 AM 49.3 °F - 39.2 °F 68% 29.93 in 10.0 mi SSE 11.5 mph 19.6 mph N/A   Clear
12:51 AM 49.3 °F - 38.7 °F 67% 29.92 in 10.0 mi SSE 12.7 mph 19.6 mph N/A   Clear
1:12 AM 49.1 °F - 38.5 °F 67% 29.92 in 10.0 mi SSE 10.4 mph 16.1 mph N/A   Clear
1:32 AM 49.1 °F - 38.5 °F 67% 29.92 in 10.0 mi SSE 11.5 mph 17.3 mph N/A   Clear
1:52 AM 49.1 °F - 38.5 °F 67% 29.91 in 10.0 mi SSE 11.5 mph 17.3 mph N/A   Clear
2:12 AM 49.1 °F - 38.8 °F 68% 29.91 in 10.0 mi South 10.4 mph - N/A   Mostly Cloudy
2:32 AM 48.7 °F - 39.2 °F 70% 29.91 in 10.0 mi SSE 10.4 mph 16.1 mph N/A   Overcast
2:52 AM 49.1 °F - 39.2 °F 69% 29.90 in 10.0 mi SSE 10.4 mph 17.3 mph N/A   Overcast
3:12 AM 49.1 °F - 39.4 °F 69% 29.89 in 10.0 mi SSE 8.1 mph - N/A   Overcast
3:32 AM 49.1 °F - 39.6 °F 70% 29.88 in 10.0 mi SSE 5.8 mph - N/A   Overcast
3:52 AM 48.9 °F - 39.7 °F 71% 29.87 in 10.0 mi SE 5.8 mph - N/A   Mostly Cloudy
4:12 AM 47.5 °F - 40.3 °F 76% 29.87 in 10.0 mi SE 8.1 mph - N/A   Scattered Clouds
4:32 AM 47.3 °F - 40.1 °F 76% 29.86 in 10.0 mi SE 10.4 mph - N/A   Clear
4:52 AM 47.3 °F - 39.6 °F 74% 29.85 in 10.0 mi SE 9.2 mph - N/A   Clear
5:12 AM 47.5 °F - 38.8 °F 72% 29.85 in 10.0 mi SSE 9.2 mph - N/A   Clear
5:32 AM 48.2 °F - 38.3 °F 69% 29.84 in 10.0 mi SSE 10.4 mph 16.1 mph N/A   Scattered Clouds
5:51 AM 47.7 °F - 38.1 °F 70% 29.83 in 10.0 mi SSE 10.4 mph - N/A   Scattered Clouds
6:12 AM 47.8 °F - 37.4 °F 67% 29.81 in 10.0 mi SSE 12.7 mph 16.1 mph N/A   Clear
6:31 AM 48.0 °F - 36.7 °F 65% 29.80 in 10.0 mi SSE 11.5 mph 18.4 mph N/A   Clear
6:52 AM 47.8 °F - 36.5 °F 65% 29.79 in 10.0 mi SSE 12.7 mph 17.3 mph N/A   Clear
7:12 AM 47.8 °F - 36.1 °F 64% 29.80 in 10.0 mi South 11.5 mph - N/A   Clear
7:31 AM 47.5 °F - 36.1 °F 65% 29.80 in 10.0 mi South 9.2 mph - N/A   Clear
7:52 AM 47.3 °F - 36.1 °F 65% 29.80 in 10.0 mi SE 9.2 mph - N/A   Clear
8:12 AM 47.3 °F - 36.5 °F 66% 29.81 in 10.0 mi South 9.2 mph - N/A   Clear
8:31 AM 48.7 °F - 36.7 °F 63% 29.82 in 10.0 mi SW 9.2 mph - N/A   Clear
8:57 AM 50.0 °F - 36.3 °F 59% 29.81 in 10.0 mi SSW 9.2 mph - N/A   Clear
9:12 AM 50.9 °F - 36.3 °F 57% 29.80 in 10.0 mi SW 9.2 mph - N/A   Scattered Clouds
9:31 AM 50.9 °F - 37.0 °F 59% 29.80 in 10.0 mi SW 10.4 mph - N/A   Mostly Cloudy
9:52 AM 50.2 °F - 38.1 °F 63% 29.81 in 10.0 mi WSW 5.8 mph - N/A   Overcast
10:12 AM 50.5 °F - 38.1 °F 62% 29.81 in 10.0 mi West 4.6 mph - N/A   Overcast
10:31 AM 50.5 °F - 38.1 °F 62% 29.81 in 10.0 mi West 6.9 mph - N/A   Overcast
10:52 AM 50.9 °F - 38.5 °F 62% 29.81 in 10.0 mi West 5.8 mph - N/A   Overcast
11:12 AM 51.1 °F - 39.2 °F 64% 29.81 in 10.0 mi WSW 5.8 mph - N/A   Overcast
11:31 AM 51.8 °F - 40.1 °F 64% 29.82 in 10.0 mi WSW 6.9 mph - N/A   Overcast
11:52 AM 52.3 °F - 40.5 °F 64% 29.81 in 10.0 mi West 9.2 mph - N/A   Overcast
12:11 PM 52.7 °F - 40.6 °F 64% 29.79 in 10.0 mi West 11.5 mph 16.1 mph N/A   Overcast
12:32 PM 53.6 °F - 40.6 °F 62% 29.80 in 10.0 mi West 11.5 mph - N/A   Overcast
12:52 PM 54.0 °F - 41.2 °F 62% 29.79 in 10.0 mi West 9.2 mph - N/A   Mostly Cloudy
1:11 PM 55.0 °F - 41.2 °F 60% 29.79 in 10.0 mi West 17.3 mph 21.9 mph N/A   Scattered Clouds
1:32 PM 55.9 °F - 41.2 °F 58% 29.78 in 10.0 mi West 12.7 mph 21.9 mph N/A   Clear
1:52 PM 57.2 °F - 39.2 °F 51% 29.76 in 10.0 mi West 20.7 mph 32.2 mph N/A   Clear
2:12 PM 57.2 °F - 37.4 °F 48% 29.74 in 10.0 mi West 23.0 mph 35.7 mph N/A   Clear
2:32 PM 57.7 °F - 37.4 °F 47% 29.73 in 10.0 mi West 20.7 mph 35.7 mph N/A   Scattered Clouds
2:51 PM 57.7 °F - 36.1 °F 44% 29.73 in 10.0 mi West 24.2 mph 38.0 mph N/A   Scattered Clouds
3:12 PM 57.7 °F - 36.1 °F 44% 29.75 in 10.0 mi West 24.2 mph 38.0 mph N/A   Scattered Clouds
3:32 PM 56.5 °F - 35.8 °F 46% 29.73 in 10.0 mi WNW 32.2 mph 38.0 mph N/A   Mostly Cloudy
3:51 PM 55.4 °F - 37.9 °F 52% 29.76 in 10.0 mi West 19.6 mph 31.1 mph N/A   Mostly Cloudy
4:12 PM 53.8 °F - 37.4 °F 54% 29.76 in 10.0 mi West 17.3 mph 40.3 mph N/A   Overcast
4:32 PM 51.8 °F - 36.7 °F 56% 29.76 in 10.0 mi WNW 28.8 mph 36.8 mph N/A   Overcast
4:51 PM 51.1 °F - 36.9 °F 58% 29.78 in 10.0 mi WNW 16.1 mph 38.0 mph N/A   Mostly Cloudy
5:12 PM 50.4 °F - 38.1 °F 63% 29.79 in 10.0 mi West 18.4 mph 31.1 mph N/A   Mostly Cloudy
5:32 PM 50.0 °F - 39.0 °F 66% 29.79 in 10.0 mi WNW 26.5 mph 33.4 mph N/A   Overcast
5:51 PM 49.3 °F - 39.7 °F 70% 29.79 in 10.0 mi WNW 21.9 mph 35.7 mph N/A   Overcast
6:12 PM 48.6 °F - 40.1 °F 73% 29.79 in 10.0 mi WNW 19.6 mph 32.2 mph N/A   Overcast
6:32 PM 48.4 °F - 40.5 °F 74% 29.79 in 10.0 mi WNW 27.6 mph 31.1 mph N/A   Overcast
6:51 PM 47.8 °F - 40.5 °F 76% 29.79 in 10.0 mi WNW 23.0 mph 33.4 mph N/A   Overcast
7:12 PM 47.3 °F - 39.2 °F 73% 29.80 in 10.0 mi WNW 23.0 mph 34.5 mph N/A   Overcast
7:32 PM 47.7 °F - 36.1 °F 64% 29.79 in 10.0 mi WNW 25.3 mph 38.0 mph N/A   Overcast
7:51 PM 47.7 °F - 35.6 °F 63% 29.80 in 10.0 mi WNW 24.2 mph 35.7 mph N/A   Overcast
8:12 PM 46.9 °F - 34.7 °F 62% 29.80 in 10.0 mi WNW 25.3 mph 35.7 mph N/A   Overcast
8:32 PM 46.8 °F - 33.6 °F 60% 29.80 in 10.0 mi WNW 24.2 mph 33.4 mph N/A   Overcast
8:51 PM 46.9 °F - 32.0 °F 56% 29.80 in 10.0 mi WNW 20.7 mph 34.5 mph N/A   Overcast
9:12 PM 46.9 °F - 30.4 °F 53% 29.80 in 10.0 mi NW 21.9 mph 31.1 mph N/A   Overcast
9:32 PM 46.9 °F - 29.3 °F 50% 29.80 in 10.0 mi NW 19.6 mph 29.9 mph N/A   Overcast
9:51 PM 46.9 °F - 28.9 °F 50% 29.80 in 10.0 mi NW 20.7 mph 35.7 mph N/A   Overcast
10:12 PM 46.9 °F - 28.4 °F 49% 29.80 in 10.0 mi NW 19.6 mph 27.6 mph N/A   Overcast
10:32 PM 46.6 °F - 29.5 °F 51% 29.80 in 10.0 mi WNW 19.6 mph 31.1 mph N/A   Overcast
10:51 PM 46.4 °F 39.5 °F 29.8 °F 53% 29.80 in 10.0 mi NW 17.3 mph 24.2 mph N/A   Overcast
11:12 PM 45.1 °F 37.9 °F 31.5 °F 59% 29.80 in 10.0 mi WNW 17.3 mph 25.3 mph N/A   Overcast
11:32 PM 45.0 °F 37.9 °F 31.1 °F 58% 29.79 in 10.0 mi WNW 16.1 mph 23.0 mph N/A   Overcast
11:51 PM 45.5 °F 37.6 °F 30.0 °F 55% 29.78 in 10.0 mi WNW 20.7 mph 28.8 mph N/A   Overcast